Find Starlink 6327

NORAD ID: 56522 Int'l Des: 2023-065 Owner: SPXS Country: US Constellation: starlink operational
LEOCIRCULAR

Current View

Loading 3D Globe...

About Starlink 6327

Starlink 6327 (NORAD 56522) is a starlink constellation satellite (v1.5) launched May 14, 2023 by SPXS of US. It operates in LEO, CIRCULAR orbit with a mass of 305.00 kg.

About Starlink 6327

Description loading...

Upcoming Passes

Passes for default location (London). Set your location on the main map for personalized predictions.

Altitude History

Loading altitude history...

Two-Line Element Set

1 56522U 23065V 26173.73605262 .00006423 00000-0 24281-3 0 9991
2 56522 43.0003 339.3575 0001511 279.6330 80.4351 15.27566807172665
Epoch: Jun 22, 2026 • Age: 12 hours

Current Status

Altitude 482.6 km
Velocity 7.63 km/s
Sub-Earth Point 10.44°N, 153.36°E
Launch Date May 14, 2023
Age 3.1 years
Type internet

Technical Details

Classification Payload
Mass 305.00 kg
Dry Mass 290.00 kg
Total Mass 305.00 kg
Length 0.20 m
Diameter 2.80 m
Span 9.00 m
Shape Box + pan
Manufacturer SPXS
Bus Type Starlink
Phase Status In Orbit
Owner/State SPXS/US

Most Searched